TimeEST,TemperatureF,Dew PointF,Humidity,Sea Level PressureIn,VisibilityMPH,Wind Direction,Wind SpeedMPH,Gust SpeedMPH,PrecipitationIn,Events,Conditions,WindDirDegrees,DateUTC
12:29 AM,37.4,35.6,93,30.02,3.0,Calm,Calm,-,0.00,Rain,Light Rain,0,2012-12-08 05:29:00
12:43 AM,37.4,35.6,93,30.02,2.0,Calm,Calm,-,0.00,Rain,Light Rain,0,2012-12-08 05:43:00
12:53 AM,37.9,37.0,97,30.07,2.0,Calm,Calm,-,0.00,Rain,Light Rain,0,2012-12-08 05:53:00
1:53 AM,37.9,37.0,97,30.06,2.5,Calm,Calm,-,0.00,Rain,Light Rain,0,2012-12-08 06:53:00
2:19 AM,37.4,35.6,93,30.00,2.5,Calm,Calm,-,0.00,Rain,Light Rain,0,2012-12-08 07:19:00
2:42 AM,37.4,35.6,93,30.00,1.8,Calm,Calm,-,0.00,,Overcast,0,2012-12-08 07:42:00
2:53 AM,37.0,36.0,96,30.05,1.0,Calm,Calm,-,0.00,,Overcast,0,2012-12-08 07:53:00
3:30 AM,37.4,35.6,93,29.99,1.5,Calm,Calm,-,N/A,,Overcast,0,2012-12-08 08:30:00
3:53 AM,37.0,35.1,93,30.04,1.0,Calm,Calm,-,N/A,,Overcast,0,2012-12-08 08:53:00
4:13 AM,35.6,35.6,100,29.99,1.0,Calm,Calm,-,N/A,,Overcast,0,2012-12-08 09:13:00
4:53 AM,36.0,35.1,97,30.04,1.0,North,3.5,-,0.00,Rain,Light Rain,350,2012-12-08 09:53:00
5:15 AM,35.6,35.6,100,29.99,2.5,NNW,3.5,-,0.01,Rain,Light Rain,340,2012-12-08 10:15:00
5:53 AM,37.4,35.6,93,29.99,1.2,North,4.6,-,N/A,Rain,Light Rain,10,2012-12-08 10:53:00
6:31 AM,35.6,35.6,100,29.99,3.0,North,3.5,-,0.03,Rain,Light Rain,10,2012-12-08 11:31:00
6:38 AM,35.6,35.6,100,29.99,3.0,NNE,5.8,-,0.05,Rain,Rain,20,2012-12-08 11:38:00
6:53 AM,36.0,35.1,97,30.04,4.0,North,3.5,-,0.07,Rain,Rain,10,2012-12-08 11:53:00
7:05 AM,35.6,35.6,100,29.99,1.5,North,3.5,-,0.00,Rain,Light Rain,10,2012-12-08 12:05:00
7:19 AM,37.4,35.6,93,29.98,1.5,NNE,3.5,-,0.01,Rain,Light Rain,30,2012-12-08 12:19:00
7:53 AM,37.0,35.1,93,30.03,1.5,North,3.5,-,0.02,Rain,Light Rain,360,2012-12-08 12:53:00
8:07 AM,37.4,35.6,93,29.97,1.5,North,4.6,-,0.00,Rain,Light Rain,350,2012-12-08 13:07:00
8:53 AM,37.0,36.0,96,30.01,1.5,North,3.5,-,0.01,Rain,Light Rain,10,2012-12-08 13:53:00
9:00 AM,37.4,35.6,93,29.95,1.5,North,4.6,-,0.00,Rain,Light Rain,10,2012-12-08 14:00:00
9:17 AM,37.4,35.6,93,29.96,1.5,North,5.8,-,0.00,Rain,Light Rain,350,2012-12-08 14:17:00
9:34 AM,37.4,35.6,93,29.97,1.0,NW,5.8,-,0.00,Rain,Light Rain,320,2012-12-08 14:34:00
9:45 AM,37.4,35.6,93,29.97,0.8,NW,4.6,-,0.01,Rain,Light Rain,320,2012-12-08 14:45:00
9:53 AM,37.0,36.0,96,30.02,0.8,NW,4.6,-,0.01,Rain,Light Rain,320,2012-12-08 14:53:00
10:11 AM,37.4,35.6,93,29.95,1.0,Calm,Calm,-,0.05,Rain,Rain,0,2012-12-08 15:11:00
10:23 AM,37.4,37.4,100,29.95,1.0,NE,4.6,-,0.06,Rain,Light Rain,50,2012-12-08 15:23:00
10:43 AM,39.2,37.4,93,29.94,4.0,NNE,4.6,-,0.06,Rain,Light Rain,30,2012-12-08 15:43:00
10:53 AM,39.0,37.0,93,29.99,4.0,NNW,6.9,-,0.06,Rain,Light Rain,340,2012-12-08 15:53:00
11:08 AM,39.2,37.4,93,29.92,2.0,NNE,5.8,-,0.01,Rain,Light Rain,20,2012-12-08 16:08:00
11:16 AM,39.2,37.4,93,29.92,1.5,North,5.8,-,0.02,Rain,Rain,10,2012-12-08 16:16:00
11:23 AM,39.2,37.4,93,29.92,1.8,North,5.8,-,0.03,Rain,Light Rain,10,2012-12-08 16:23:00
11:31 AM,39.2,37.4,93,29.91,1.8,NNE,5.8,-,0.03,Rain,Light Rain,20,2012-12-08 16:31:00
11:49 AM,39.2,37.4,93,29.90,2.5,North,5.8,-,0.04,Rain,Light Rain,10,2012-12-08 16:49:00
11:53 AM,39.0,37.0,93,29.94,2.5,NNE,6.9,-,0.04,Rain,Light Rain,20,2012-12-08 16:53:00
12:03 PM,39.2,37.4,93,29.89,4.0,NNE,6.9,-,0.00,Rain,Light Rain,20,2012-12-08 17:03:00
12:12 PM,39.2,37.4,93,29.89,6.0,North,5.8,-,0.00,,Overcast,10,2012-12-08 17:12:00
12:21 PM,39.2,37.4,93,29.89,6.0,North,4.6,-,0.00,,Overcast,360,2012-12-08 17:21:00
12:53 PM,39.0,37.0,93,29.92,3.0,NNW,5.8,-,0.00,,Overcast,330,2012-12-08 17:53:00
1:00 PM,39.2,37.4,93,29.86,2.5,NNW,5.8,-,N/A,,Overcast,330,2012-12-08 18:00:00
1:53 PM,39.0,37.9,96,29.91,2.0,NNW,4.6,-,0.00,,Light Drizzle,330,2012-12-08 18:53:00
2:53 PM,39.0,37.0,93,29.91,2.0,NW,3.5,-,0.00,,Overcast,320,2012-12-08 19:53:00
3:53 PM,39.0,37.0,93,29.92,2.0,Calm,Calm,-,0.00,,Light Drizzle,0,2012-12-08 20:53:00
4:53 PM,39.0,37.0,93,29.91,2.0,Calm,Calm,-,0.00,,Light Drizzle,0,2012-12-08 21:53:00
5:53 PM,39.0,37.9,96,29.93,2.0,Calm,Calm,-,0.00,,Overcast,0,2012-12-08 22:53:00
6:30 PM,39.2,37.4,93,29.88,2.0,Calm,Calm,-,N/A,,Overcast,0,2012-12-08 23:30:00
6:53 PM,39.0,37.9,96,29.93,2.0,Calm,Calm,-,N/A,,Overcast,0,2012-12-08 23:53:00
7:47 PM,39.2,37.4,93,29.89,0.8,Calm,Calm,-,N/A,,Overcast,0,2012-12-09 00:47:00
7:48 PM,39.0,37.9,96,29.94,0.8,Calm,Calm,-,N/A,,Overcast,0,2012-12-09 00:48:00
8:53 PM,39.0,37.9,96,29.94,0.8,Calm,Calm,-,N/A,,Overcast,0,2012-12-09 01:53:00
9:31 PM,39.2,37.4,93,29.89,0.2,Calm,Calm,-,N/A,Fog,Fog,0,2012-12-09 02:31:00
9:53 PM,39.0,37.9,96,29.94,0.2,Calm,Calm,-,0.00,Fog,Light Drizzle,0,2012-12-09 02:53:00
9:55 PM,39.2,37.4,93,29.89,0.5,Calm,Calm,-,0.00,Fog,Light Drizzle,0,2012-12-09 02:55:00
10:39 PM,39.2,39.2,100,29.91,0.2,Calm,Calm,-,0.00,Fog,Fog,0,2012-12-09 03:39:00
10:53 PM,39.2,39.2,100,29.91,0.2,Calm,Calm,-,N/A,Fog,Fog,0,2012-12-09 03:53:00
11:33 PM,39.2,37.4,93,29.92,0.5,Calm,Calm,-,N/A,Fog,Fog,0,2012-12-09 04:33:00
11:43 PM,39.2,37.4,93,29.92,0.2,Calm,Calm,-,N/A,Fog,Fog,0,2012-12-09 04:43:00
11:51 PM,39.2,37.4,93,29.92,0.2,Calm,Calm,-,N/A,Fog,Fog,0,2012-12-09 04:51:00
11:53 PM,39.0,37.9,96,29.98,0.2,Calm,Calm,-,N/A,Fog,Fog,0,2012-12-09 04:53:00
11:57 PM,39.2,37.4,93,29.93,0.2,South,3.5,-,N/A,Fog,Fog,170,2012-12-09 04:57:00